• In Österreich
  • Länderverzeichnis
  • Für 7 Tage
  • Wassertemperatur
  • Satellitenkarten
  • Wetterkarte
  • News
  • Widgets
  • user-avatar
    Anmelden

    Stündliche Wetter Escaldes-Engordany

    Heute, 23 September, Sonntag

    Zeit Temperatur Niederschläge Wind Luftdruck Luftfeuchtigkeit
    00:00 +14°C° 0 mm 2 m/S 645 mmHg 80%
    01:00 +14°C° 0 mm 2 m/S 645 mmHg 80%
    02:00 +14°C° 0 mm 2 m/S 645 mmHg 79%
    03:00 +13°C° 0 mm 2 m/S 645 mmHg 78%
    04:00 +13°C° 0 mm 1 m/S 645 mmHg 74%
    05:00 +13°C° 0 mm 1 m/S 645 mmHg 71%
    06:00 +13°C° 0 mm 1 m/S 645 mmHg 68%
    07:00 +16°C° 0 mm 1 m/S 646 mmHg 60%
    08:00 +20°C° 0 mm 1 m/S 647 mmHg 51%
    09:00 +20°C° 0 mm 0 m/S 648 mmHg 43%
    10:00 +23°C° 0 mm 1 m/S 648 mmHg 41%
    11:00 +24°C° 0 mm 1 m/S 648 mmHg 39%
    12:00 +25°C° 0 mm 1 m/S 648 mmHg 38%
    13:00 +25°C° 0 mm 2 m/S 648 mmHg 39%
    14:00 +25°C° 0 mm 2 m/S 647 mmHg 41%
    15:00 +25°C° 0 mm 2 m/S 647 mmHg 42%
    16:00 +23°C° 0 mm 2 m/S 646 mmHg 50%
    17:00 +20°C° 0 mm 2 m/S 646 mmHg 57%
    18:00 +18°C° 0 mm 2 m/S 645 mmHg 65%
    19:00 +17°C° 0 mm 2 m/S 645 mmHg 69%
    20:00 +16°C° 0 mm 2 m/S 645 mmHg 73%
    21:00 +15°C° 0 mm 2 m/S 646 mmHg 76%
    22:00 +14°C° 0 mm 2 m/S 645 mmHg 77%
    23:00 +14°C° 0 mm 2 m/S 645 mmHg 78%

    Morgen, 24 September, Montag

    Zeit Temperatur Niederschläge Wind Luftdruck Luftfeuchtigkeit
    00:00 +13°C° 0 mm 2 m/S 645 mmHg 79%
    01:00 +13°C° 0 mm 2 m/S 645 mmHg 77%
    02:00 +13°C° 0 mm 2 m/S 645 mmHg 74%
    03:00 +13°C° 0 mm 2 m/S 644 mmHg 72%
    04:00 +13°C° 0 mm 2 m/S 644 mmHg 75%
    05:00 +13°C° 0 mm 2 m/S 645 mmHg 79%
    06:00 +13°C° 0 mm 2 m/S 645 mmHg 82%
    07:00 +14°C° 0 mm 2 m/S 645 mmHg 78%
    08:00 +15°C° 0 mm 2 m/S 646 mmHg 74%
    09:00 +16°C° 0 mm 2 m/S 647 mmHg 71%
    10:00 +17°C° 0 mm 2 m/S 647 mmHg 67%
    11:00 +18°C° 0 mm 2 m/S 647 mmHg 64%
    12:00 +18°C° 0 mm 3 m/S 647 mmHg 61%
    13:00 +18°C° 0 mm 3 m/S 647 mmHg 60%
    14:00 +18°C° 0 mm 3 m/S 646 mmHg 59%
    15:00 +18°C° 0 mm 3 m/S 646 mmHg 58%
    16:00 +16°C° 0.1 mm 3 m/S 645 mmHg 64%
    17:00 +13°C° 0.1 mm 3 m/S 645 mmHg 70%
    18:00 +11°C° 0.1 mm 3 m/S 644 mmHg 75%
    19:00 +11°C° 0.2 mm 3 m/S 644 mmHg 75%
    20:00 +10°C° 0.2 mm 2 m/S 645 mmHg 74%
    21:00 +9°C° 0.2 mm 2 m/S 645 mmHg 73%
    22:00 +9°C° 0 mm 2 m/S 645 mmHg 72%
    23:00 +9°C° 0 mm 2 m/S 645 mmHg 70%

    übermorgen, 25 September, Dienstag

    Zeit Temperatur Niederschläge Wind Luftdruck Luftfeuchtigkeit
    00:00 +8°C° 0 mm 2 m/S 645 mmHg 68%
    01:00 +8°C° 0 mm 2 m/S 645 mmHg 70%
    02:00 +9°C° 0 mm 1 m/S 644 mmHg 71%
    03:00 +9°C° 0 mm 1 m/S 644 mmHg 73%
    04:00 +9°C° 0 mm 1 m/S 644 mmHg 75%
    05:00 +9°C° 0 mm 1 m/S 645 mmHg 77%
    06:00 +9°C° 0 mm 1 m/S 645 mmHg 80%
    07:00 +11°C° 0 mm 1 m/S 645 mmHg 76%
    08:00 +12°C° 0 mm 1 m/S 646 mmHg 72%
    09:00 +14°C° 0 mm 2 m/S 647 mmHg 69%
    10:00 +14°C° 0 mm 2 m/S 647 mmHg 65%
    11:00 +15°C° 0 mm 2 m/S 647 mmHg 61%
    12:00 +16°C° 0 mm 2 m/S 648 mmHg 58%
    13:00 +16°C° 0 mm 2 m/S 647 mmHg 58%
    14:00 +16°C° 0 mm 2 m/S 647 mmHg 58%
    15:00 +16°C° 0 mm 2 m/S 647 mmHg 59%
    16:00 +15°C° 0 mm 2 m/S 646 mmHg 64%
    17:00 +13°C° 0 mm 2 m/S 646 mmHg 70%
    18:00 +12°C° 0 mm 2 m/S 646 mmHg 76%
    19:00 +12°C° 0 mm 2 m/S 646 mmHg 79%
    20:00 +10°C° 0 mm 2 m/S 646 mmHg 82%
    21:00 +10°C° 0 mm 1 m/S 647 mmHg 85%
    22:00 +10°C° 0 mm 1 m/S 646 mmHg 86%
    23:00 +10°C° 0 mm 1 m/S 646 mmHg 86%

    26 September, Mittwoch

    Zeit Temperatur Niederschläge Wind Luftdruck Luftfeuchtigkeit
    00:00 +10°C° 0 mm 1 m/S 646 mmHg 86%
    01:00 +9°C° 0 mm 1 m/S 646 mmHg 85%
    02:00 +9°C° 0 mm 1 m/S 646 mmHg 85%
    03:00 +9°C° 0 mm 1 m/S 646 mmHg 84%
    04:00 +9°C° 0 mm 1 m/S 646 mmHg 83%
    05:00 +8°C° 0 mm 2 m/S 646 mmHg 82%
    06:00 +8°C° 0 mm 2 m/S 646 mmHg 81%
    07:00 +10°C° 0 mm 2 m/S 647 mmHg 73%
    08:00 +13°C° 0 mm 2 m/S 648 mmHg 66%
    09:00 +16°C° 0 mm 3 m/S 649 mmHg 58%
    10:00 +17°C° 0 mm 3 m/S 649 mmHg 55%
    11:00 +18°C° 0 mm 3 m/S 650 mmHg 52%
    12:00 +19°C° 0 mm 3 m/S 650 mmHg 49%
    13:00 +19°C° 0 mm 3 m/S 650 mmHg 50%
    14:00 +19°C° 0 mm 3 m/S 650 mmHg 51%
    15:00 +19°C° 0 mm 3 m/S 649 mmHg 52%
    16:00 +17°C° 0 mm 3 m/S 649 mmHg 61%
    17:00 +15°C° 0 mm 2 m/S 648 mmHg 70%
    18:00 +13°C° 0 mm 2 m/S 648 mmHg 79%
    19:00 +12°C° 0 mm 2 m/S 648 mmHg 81%
    20:00 +12°C° 0 mm 2 m/S 648 mmHg 84%
    21:00 +11°C° 0 mm 1 m/S 648 mmHg 86%
    22:00 +11°C° 0 mm 1 m/S 648 mmHg 86%
    23:00 +11°C° 0 mm 1 m/S 647 mmHg 85%

    27 September, Donnerstag

    Zeit Temperatur Niederschläge Wind Luftdruck Luftfeuchtigkeit
    00:00 +10°C° 0 mm 1 m/S 647 mmHg 84%
    01:00 +10°C° 0 mm 1 m/S 647 mmHg 82%
    02:00 +10°C° 0 mm 1 m/S 647 mmHg 81%
    03:00 +10°C° 0 mm 1 m/S 647 mmHg 79%
    04:00 +10°C° 0 mm 1 m/S 646 mmHg 79%
    05:00 +10°C° 0 mm 1 m/S 646 mmHg 79%
    06:00 +9°C° 0 mm 1 m/S 646 mmHg 79%
    07:00 +12°C° 0 mm 1 m/S 647 mmHg 71%
    08:00 +15°C° 0 mm 1 m/S 648 mmHg 62%
    09:00 +18°C° 0 mm 2 m/S 649 mmHg 53%
    10:00 +19°C° 0 mm 2 m/S 649 mmHg 50%
    11:00 +20°C° 0 mm 2 m/S 650 mmHg 46%
    12:00 +21°C° 0 mm 2 m/S 650 mmHg 42%
    13:00 +21°C° 0 mm 2 m/S 649 mmHg 43%
    14:00 +21°C° 0 mm 2 m/S 649 mmHg 44%
    15:00 +21°C° 0 mm 2 m/S 648 mmHg 45%
    16:00 +19°C° 0 mm 2 m/S 647 mmHg 55%
    17:00 +16°C° 0 mm 1 m/S 646 mmHg 64%
    18:00 +14°C° 0 mm 1 m/S 646 mmHg 73%
    19:00 +14°C° 0 mm 1 m/S 645 mmHg 76%
    20:00 +13°C° 0 mm 1 m/S 645 mmHg 78%
    21:00 +12°C° 0 mm 1 m/S 645 mmHg 81%
    22:00 +12°C° 0 mm 1 m/S 645 mmHg 80%
    23:00 +12°C° 0 mm 1 m/S 644 mmHg 79%

    28 September, Freitag

    Zeit Temperatur Niederschläge Wind Luftdruck Luftfeuchtigkeit
    00:00 +12°C° 0 mm 1 m/S 644 mmHg 78%
    01:00 +12°C° 0 mm 1 m/S 644 mmHg 78%
    02:00 +12°C° 0 mm 1 m/S 643 mmHg 78%
    03:00 +12°C° 0 mm 1 m/S 643 mmHg 77%
    04:00 +12°C° 0 mm 1 m/S 643 mmHg 78%
    05:00 +12°C° 0 mm 1 m/S 643 mmHg 78%
    06:00 +12°C° 0 mm 1 m/S 643 mmHg 78%
    07:00 +14°C° 0 mm 1 m/S 644 mmHg 70%
    08:00 +18°C° 0 mm 1 m/S 645 mmHg 62%
    09:00 +20°C° 0 mm 1 m/S 646 mmHg 53%
    10:00 +21°C° 0.1 mm 1 m/S 645 mmHg 52%
    11:00 +21°C° 0.1 mm 1 m/S 645 mmHg 52%
    12:00 +22°C° 0.1 mm 1 m/S 645 mmHg 51%
    13:00 +21°C° 0.5 mm 1 m/S 645 mmHg 55%
    14:00 +21°C° 0.5 mm 1 m/S 644 mmHg 59%
    15:00 +20°C° 0.5 mm 1 m/S 643 mmHg 62%
    16:00 +19°C° 0.6 mm 1 m/S 643 mmHg 67%
    17:00 +18°C° 0.6 mm 1 m/S 642 mmHg 71%
    18:00 +15°C° 0.6 mm 1 m/S 642 mmHg 75%
    19:00 +15°C° 0.3 mm 1 m/S 642 mmHg 77%
    20:00 +14°C° 0.3 mm 1 m/S 642 mmHg 80%
    21:00 +14°C° 0.3 mm 1 m/S 642 mmHg 82%
    22:00 +13°C° 0.1 mm 1 m/S 642 mmHg 83%
    23:00 +13°C° 0.1 mm 1 m/S 642 mmHg 84%
    Mehr zeigen